Location: C.E.K. Mees Observatory
(42.7003°N, 77.4088°W)
Time: 13:53:10
(UTC-05:00)

Hubble Space Telescope - Pass Details

Date: 08 October 2017
Orbit: 537 x 541 km, 28.5° (Epoch: 16 December)

Event Time Altitude Azimuth Distance (km) Brightness Sun altitude
Exits shadow 05:27:39 10° 181° (S) 1,773 3.3 -20.5°
Drops below altitude 10° 05:27:54 10° 177° (S) 1,785 3.3 -20.4°
Sets 05:32:10 0° 135° (SE) 2,676 4.8 -19.6°
